Find Starlink 30880

NORAD ID: 58232 Int'l Des: 2023-171 Owner: SPXS Country: US Constellation: starlink operational
LEOCIRCULAR

Live Position

Loading 3D Globe...

About Starlink 30880

Description loading...

Upcoming Passes

Passes for default location (London). Set your location on the main map for personalized predictions.

Altitude History

Loading altitude history...

Two-Line Element Set

1 58232U 23171C 26126.91535308 -.00013544 00000-0 -48471-3 0 9991
2 58232 43.0051 316.0499 0001653 267.3066 92.7596 15.27500640138642
Epoch: May 6, 2026 • Age: 6 hours

Current Status

Altitude 493.5 km
Velocity 7.62 km/s
Sub-Earth Point -38.08°S, 89.76°W
Launch Date Nov 8, 2023
Age 2.4 years
Type internet

Technical Details

Classification Payload
Mass 730.00 kg
Dry Mass 700.00 kg
Total Mass 730.00 kg
Length 0.30 m
Diameter 4.10 m
Span 29.00 m
Shape Box + pan
Manufacturer SPXS
Bus Type Starlink V2M
Phase Status In Orbit
Owner/State SPXS/US

Most Searched